EW7075 Weather Reports


time (UTC)temp
F
wind
direction
speed
knots
gust
knots
rain 1hr
in
rain 24hr
in
rain mn
in
humidity
%
barometer
mb
20260507144602 78 197 0.0 0.0 0.00 0.00 0.00 62 1008.5
20260507143559 78 192 0.0 0.0 0.00 0.00 0.00 62 1008.8
20260507143101 78 220 0.0 0.0 0.00 0.00 0.00 65 1009.0
20260507142058 77 197 0.0 0.0 0.00 0.00 0.00 63 1009.3
20260507140558 77 209 0.0 0.0 0.00 0.00 0.00 64 1009.8
20260507140059 77 205 0.0 0.0 0.00 0.00 0.00 66 1010.0
20260507135603 77 183 0.0 0.0 0.00 0.00 0.00 67 1010.2
20260507135059 77 197 0.0 0.0 0.00 0.00 0.00 65 1010.3
20260507134101 77 222 0.0 0.0 0.00 0.00 0.00 67 1010.5
20260507133601 76 178 0.0 0.0 0.00 0.00 0.00 68 1010.6
20260507133058 76 197 0.0 0.0 0.00 0.00 0.00 68 1010.8
20260507132559 76 162 0.0 0.0 0.00 0.00 0.00 66 1010.9
20260507132101 76 181 0.0 0.0 0.00 0.00 0.00 68 1010.9
20260507131559 75 192 0.0 0.0 0.00 0.00 0.00 68 1010.8
20260507131107 75 211 0.0 0.0 0.00 0.00 0.00 67 1011.2
20260507130601 75 192 0.0 0.0 0.00 0.00 0.00 68 1011.2
20260507130103 75 165 0.0 0.0 0.00 0.00 0.00 71 1011.3
20260507125600 74 213 0.0 0.0 0.00 0.00 0.00 72 1011.4
20260507125057 73 197 0.0 0.0 0.00 0.00 0.00 71 1011.5
20260507124558 73 219 0.0 0.0 0.00 0.00 0.00 71 1011.6
20260507124101 73 220 0.0 0.0 0.00 0.00 0.00 75 1011.8
20260507123602 73 219 0.0 0.0 0.00 0.00 0.00 72 1011.9
20260507123101 73 214 0.0 0.0 0.00 0.00 0.00 72 1012.0
20260507122559 72 243 0.0 0.0 0.00 0.00 0.00 74 1012.1
20260507121557 72 209 0.0 0.0 0.00 0.00 0.00 77 1012.0
20260507121104 72 209 0.0 0.0 0.00 0.00 0.00 76 1012.0
20260507120601 72 207 0.0 0.0 0.00 0.00 0.00 78 1011.9
20260507120058 72 207 0.0 0.0 0.00 0.00 0.00 78 1012.1
20260507115057 72 207 0.0 0.0 0.00 0.00 0.00 75 1011.9
20260507114557 72 206 0.0 0.0 0.00 0.00 0.00 76 1012.0
20260507114057 72 206 0.0 0.0 0.00 0.00 0.00 74 1011.9
20260507113557 72 211 0.0 0.0 0.00 0.00 0.00 77 1012.0
20260507113057 73 209 0.0 0.0 0.00 0.00 0.00 75 1011.9
20260507112558 73 209 0.0 0.0 0.00 0.00 0.00 75 1011.9
20260507112101 73 209 0.0 0.0 0.00 0.00 0.00 73 1011.9
20260507111600 73 228 0.0 0.0 0.00 0.00 0.00 74 1011.7
20260507110557 73 204 0.0 0.0 0.00 0.00 0.00 74 1011.3
20260507110059 73 206 0.0 0.0 0.00 0.00 0.00 73 1011.3
20260507105057 73 219 0.0 0.0 0.00 0.00 0.00 73 1011.2
20260507104557 73 205 0.0 0.0 0.00 0.00 0.00 74 1011.4
20260507104104 73 208 0.0 0.0 0.00 0.00 0.00 73 1011.1
20260507103601 72 197 0.0 0.0 0.00 0.00 0.00 73 1011.2
20260507103100 72 178 0.0 0.0 0.00 0.00 0.00 74 1011.2
20260507102557 72 236 0.0 0.0 0.00 0.00 0.00 74 1011.1
20260507102057 72 233 0.0 0.0 0.00 0.00 0.00 74 1011.1
20260507101056 72 197 0.0 0.0 0.00 0.00 0.00 74 1011.0
20260507100559 72 197 0.0 0.0 0.00 0.00 0.00 74 1011.2
20260507100058 72 232 0.0 0.0 0.00 0.00 0.00 73 1011.1
20260507095059 72 160 0.0 0.0 0.00 0.00 0.00 74 1011.1
20260507094558 72 197 0.0 0.0 0.00 0.00 0.00 74 1011.3
20260507094056 72 230 0.0 0.0 0.00 0.00 0.00 73 1011.4
20260507093556 72 206 0.0 0.0 0.00 0.00 0.00 73 1011.3
20260507093100 72 235 0.0 0.0 0.00 0.00 0.00 74 1011.3
20260507092558 73 344 0.0 0.0 0.00 0.00 0.00 74 1011.2
20260507092104 73 197 0.0 0.0 0.00 0.00 0.00 73 1011.3
20260507091556 73 197 0.0 0.0 0.00 0.00 0.00 73 1011.3
20260507091105 73 34 0.0 0.0 0.00 0.00 0.00 73 1011.3
20260507090602 73 187 0.0 0.0 0.00 0.00 0.00 73 1011.1
20260507090100 73 226 0.0 0.0 0.00 0.00 0.00 73 1011.1
20260507085559 73 178 0.0 0.0 0.00 0.00 0.00 72 1011.0
20260507085100 73 207 0.0 0.0 0.00 0.00 0.00 73 1010.9
20260507084600 73 222 0.0 0.0 0.00 0.00 0.00 73 1011.0
20260507084103 73 180 0.0 0.0 0.00 0.00 0.00 72 1011.0
20260507083556 73 212 0.0 0.0 0.00 0.00 0.00 72 1011.1
20260507083102 73 74 0.0 0.0 0.00 0.00 0.00 72 1011.2
20260507082555 73 175 0.0 0.0 0.00 0.00 0.00 72 1011.1
20260507082057 73 204 0.0 0.0 0.00 0.00 0.00 72 1011.0
20260507081600 73 203 0.0 0.0 0.00 0.00 0.00 73 1011.1
20260507081103 73 197 0.0 0.0 0.00 0.00 0.00 72 1011.0
20260507080559 73 220 0.0 0.0 0.00 0.00 0.00 72 1010.9
20260507075558 73 220 0.0 0.0 0.00 0.00 0.00 72 1011.2
20260507075055 73 187 0.0 0.0 0.00 0.00 0.00 74 1011.3
20260507074559 73 205 0.0 0.0 0.00 0.00 0.00 73 1011.3
20260507074101 72 192 0.0 0.0 0.00 0.00 0.00 74 1011.3
20260507073555 72 203 0.0 0.0 0.00 0.00 0.00 74 1011.6
20260507072558 72 223 0.0 0.0 0.00 0.00 0.00 76 1011.7
20260507071555 72 216 0.0 0.0 0.00 0.00 0.00 76 1012.0
20260507071106 71 214 0.0 0.0 0.00 0.00 0.00 78 1012.0
20260507070600 71 231 0.0 0.0 0.00 0.00 0.00 77 1012.0
20260507065559 70 197 0.0 0.0 0.00 0.00 0.00 81 1012.2
20260507064602 70 197 0.0 0.0 0.00 0.00 0.00 82 1012.5
20260507064056 70 197 0.0 0.0 0.00 0.00 0.00 84 1012.6
20260507063056 69 179 0.0 0.0 0.00 0.00 0.00 82 1012.6
20260507062559 68 223 0.0 0.0 0.00 0.00 0.00 85 1012.7
20260507062058 68 226 0.0 0.0 0.00 0.00 0.00 89 1012.7
20260507061603 68 226 0.0 0.0 0.00 0.00 0.00 90 1012.8
20260507060555 68 233 0.0 0.0 0.00 0.01 0.00 89 1012.9
20260507060101 68 233 0.0 0.0 0.00 0.01 0.00 89 1013.1
20260507055559 69 231 0.0 0.0 0.00 0.01 0.00 89 1013.2
20260507054600 69 231 0.0 0.0 0.00 0.01 0.00 88 1013.4
20260507053557 69 231 0.0 0.0 0.00 0.01 0.00 87 1013.5
20260507052558 68 233 0.0 0.0 0.00 0.01 0.00 88 1013.7
20260507052055 68 234 0.0 0.0 0.00 0.01 0.00 91 1013.8
20260507051602 67 234 0.0 0.0 0.00 0.01 0.00 91 1013.9
20260507051102 67 238 0.0 0.0 0.00 0.01 0.00 94 1014.1
20260507050055 67 241 0.0 0.0 0.00 0.01 0.00 95 1014.3
20260507045556 67 270 0.0 0.0 0.00 0.01 0.00 96 1014.4
20260507045058 67 270 0.0 0.0 0.00 0.01 0.00 96 1014.6
20260507044600 67 271 0.0 0.0 0.00 0.01 0.00 96 1014.5
20260507044100 67 271 0.0 0.0 0.00 0.01 0.00 96 1014.6
20260507043600 67 271 0.0 0.0 0.00 0.01 0.00 96 1014.8
20260507042559 67 286 0.0 0.0 0.00 0.01 0.00 97 1014.8
20260507042102 67 286 0.0 0.0 0.00 0.01 0.00 97 1014.9
20260507041056 68 286 0.0 0.0 0.00 0.01 0.00 97 1015.3
20260507040600 68 286 0.0 0.0 0.00 0.01 0.00 97 1015.4
20260507035600 68 286 0.0 0.0 0.00 0.01 0.00 98 1015.3
20260507035056 68 286 0.0 0.0 0.00 0.01 0.00 97 1015.4
20260507034056 68 286 0.0 0.0 0.00 0.01 0.00 98 1015.5
20260507033600 68 286 0.0 0.0 0.00 0.01 0.00 98 1015.5
20260507033056 67 286 0.0 0.0 0.00 0.01 0.00 98 1015.7
20260507032600 68 286 0.0 0.0 0.00 0.01 0.00 98 1015.7
20260507031602 68 286 0.0 0.0 0.00 0.01 0.00 98 1015.7
20260507031056 68 286 0.0 0.0 0.00 0.01 0.00 99 1015.8
20260507030556 67 286 0.0 0.0 0.00 0.01 0.00 98 1015.9
20260507025600 67 286 0.0 0.0 0.00 0.01 0.00 98 1016.1
20260507025058 67 305 0.0 0.0 0.00 0.01 0.00 98 1016.0
20260507024604 67 305 0.0 0.0 0.00 0.01 0.00 97 1016.1
20260507023558 68 305 0.0 0.0 0.00 0.01 0.00 97 1016.2
20260507022602 68 305 0.0 0.0 0.00 0.01 0.00 97 1016.3
20260507022055 68 305 0.0 0.0 0.00 0.01 0.00 97 1016.4
20260507021600 68 305 0.0 0.0 0.00 0.01 0.00 97 1016.4
20260507021106 68 305 0.0 0.0 0.00 0.01 0.00 97 1016.4
20260507020600 68 305 0.0 0.0 0.00 0.01 0.00 97 1016.5
20260507020100 68 305 0.0 0.0 0.00 0.01 0.00 97 1016.6
20260507015558 68 305 0.0 0.0 0.00 0.01 0.00 97 1016.6
20260507015055 68 305 0.0 0.0 0.00 0.01 0.00 97 1016.4
20260507014558 68 305 0.0 0.0 0.00 0.01 0.00 97 1016.4
20260507014058 68 305 0.0 0.0 0.00 0.01 0.00 97 1016.5
20260507013602 68 305 0.0 0.0 0.00 0.01 0.00 97 1016.5
20260507013055 68 305 0.0 0.0 0.00 0.01 0.00 96 1016.6
20260507012558 68 305 0.0 0.0 0.00 0.01 0.00 96 1016.6
20260507012058 68 305 0.0 0.0 0.00 0.01 0.00 96 1016.7
20260507011600 68 305 0.0 0.0 0.00 0.01 0.00 96 1016.8
20260507010558 68 305 0.0 0.0 0.00 0.01 0.00 96 1016.9
20260507010100 68 305 0.0 0.0 0.00 0.01 0.00 96 1016.8
20260507005602 68 305 0.0 0.0 0.00 0.01 0.00 96 1016.8
20260507005059 68 305 0.0 0.0 0.00 0.01 0.00 96 1016.7
20260507004559 68 305 0.0 0.0 0.00 0.01 0.00 97 1016.8
20260507004056 68 305 0.0 0.0 0.00 0.01 0.00 97 1016.9
20260507003055 68 305 0.0 0.0 0.00 0.01 0.00 97 1017.0
20260507002559 68 305 0.0 0.0 0.00 0.01 0.00 97 1016.9
20260507002105 68 305 0.0 0.0 0.00 0.01 0.00 97 1016.8
20260507001602 68 305 0.0 0.0 0.00 0.01 0.00 97 1016.8
20260507001059 68 305 0.0 0.0 0.00 0.01 0.00 96 1016.9
20260507000559 68 305 0.0 0.0 0.00 0.01 0.00 96 1016.9
20260507000058 68 305 0.0 0.0 0.00 0.01 0.00 96 1017.0
20260506235556 68 305 0.0 0.0 0.00 0.01 0.00 96 1017.0
20260506235058 68 305 0.0 0.0 0.00 0.01 0.00 96 1017.0
20260506234604 68 305 0.0 0.0 0.00 0.01 0.00 96 1016.9
20260506233555 69 305 0.0 0.0 0.00 0.01 0.00 96 1017.1
20260506233102 69 305 0.0 0.0 0.00 0.01 0.00 96 1017.1
20260506232055 69 305 0.0 0.0 0.00 0.01 0.00 96 1017.1
20260506231601 69 305 0.0 0.0 0.00 0.01 0.00 96 1017.1
20260506231056 69 305 0.0 0.0 0.00 0.01 0.00 96 1017.1
20260506230601 69 305 0.0 0.0 0.00 0.01 0.00 96 1017.0
20260506230106 69 305 0.0 0.0 0.00 0.01 0.00 96 1017.0
20260506225603 69 305 0.0 0.0 0.00 0.01 0.00 96 1017.0
20260506225059 69 305 0.0 0.0 0.00 0.01 0.00 95 1017.0
20260506224614 69 305 0.0 0.0 0.00 0.01 0.00 95 1017.1
20260506224101 69 305 0.0 0.0 0.00 0.01 0.00 95 1017.1
20260506223600 69 305 0.0 0.0 0.00 0.01 0.00 95 1017.1
20260506223109 69 305 0.0 0.0 0.00 0.01 0.00 95 1017.1
20260506222559 69 305 0.0 0.0 0.00 0.01 0.00 95 1017.0
20260506222100 69 305 0.0 0.0 0.00 0.01 0.00 95 1016.9
20260506221606 69 305 0.0 0.0 0.00 0.01 0.00 95 1016.9
20260506221103 69 305 0.0 0.0 0.00 0.01 0.00 95 1016.8
20260506220608 69 305 0.0 0.0 0.00 0.01 0.01 95 1016.9
20260506215101 70 305 0.0 0.0 0.00 0.01 0.01 95 1016.9
20260506214600 70 305 0.0 0.0 0.00 0.01 0.01 94 1016.9
20260506213559 70 305 0.0 0.0 0.00 0.01 0.01 94 1016.8
20260506213100 70 305 0.0 0.0 0.00 0.01 0.01 94 1016.9
20260506212558 70 305 0.0 0.0 0.00 0.01 0.01 94 1016.9
20260506212059 70 305 0.0 0.0 0.00 0.01 0.01 94 1016.9
20260506211600 70 305 0.0 0.0 0.00 0.01 0.01 95 1016.8
20260506211102 70 305 0.0 0.0 0.00 0.01 0.01 94 1016.9
20260506210602 71 305 0.0 0.0 0.00 0.01 0.01 94 1016.9
20260506210057 71 305 0.0 0.0 0.00 0.01 0.01 94 1017.0
20260506205104 71 305 0.0 0.0 0.00 0.01 0.01 94 1017.0
20260506204557 71 305 0.0 0.0 0.00 0.01 0.01 94 1016.9
20260506204058 71 305 0.0 0.0 0.00 0.01 0.01 94 1017.0
20260506203603 71 305 0.0 0.0 0.00 0.01 0.01 94 1017.0
20260506203058 71 305 0.0 0.0 0.00 0.01 0.01 94 1017.0
20260506202558 71 305 0.0 0.0 0.00 0.01 0.01 93 1017.0
20260506202108 71 305 0.0 0.0 0.00 0.01 0.01 94 1017.1
20260506201607 72 305 0.0 0.0 0.00 0.01 0.01 93 1017.2
20260506201102 72 305 0.0 0.0 0.00 0.01 0.01 94 1017.3
20260506200604 72 305 0.0 0.0 0.00 0.01 0.01 93 1017.3
20260506195603 72 305 0.0 0.0 0.00 0.01 0.01 92 1017.4
20260506195103 72 305 0.0 0.0 0.00 0.01 0.01 92 1017.4
20260506194921 72 305 0.0 0.0 0.00 0.01 0.01 92 1017.4
20260506194114 73 305 0.0 0.0 0.00 0.01 0.01 92 1017.4
20260506193603 73 305 0.0 0.0 0.00 0.01 0.01 91 1017.4
20260506191610 74 305 0.0 0.0 0.00 0.01 0.01 91 1017.4
20260506191059 74 305 0.0 0.0 0.00 0.01 0.01 90 1017.4
20260506190640 74 305 0.0 0.0 0.00 0.01 0.01 90 1017.4
20260506190111 74 305 0.0 0.0 0.00 0.01 0.01 90 1017.4
20260506185559 74 305 0.0 0.0 0.00 0.01 0.01 90 1017.5
20260506185103 74 305 0.0 0.0 0.00 0.01 0.01 90 1017.5
20260506184058 75 305 0.0 0.0 0.00 0.01 0.01 89 1017.4
20260506183605 75 305 0.0 0.0 0.00 0.01 0.01 89 1017.4
20260506183058 75 305 0.0 0.0 0.00 0.01 0.01 88 1017.5
20260506182556 75 305 0.0 0.0 0.00 0.01 0.01 88 1017.6
20260506182059 76 305 0.0 0.0 0.00 0.01 0.01 87 1017.7
20260506180600 76 305 0.0 0.0 0.00 0.01 0.01 85 1017.7
20260506175601 77 284 0.0 0.0 0.00 0.01 0.01 83 1017.8
20260506175059 77 284 0.0 0.0 0.00 0.01 0.01 83 1018.0
20260506174558 77 284 0.0 0.0 0.00 0.01 0.01 83 1018.1
20260506174102 77 284 0.0 0.0 0.00 0.01 0.01 82 1018.1
20260506173558 77 286 0.0 0.0 0.00 0.01 0.01 83 1018.1
20260506173100 77 170 0.0 0.0 0.00 0.01 0.01 83 1018.2
20260506172603 77 170 0.0 0.0 0.00 0.01 0.01 80 1018.3
20260506172058 78 170 0.0 0.0 0.00 0.01 0.01 82 1018.3
20260506171557 78 97 0.0 0.0 0.00 0.01 0.01 81 1018.3
20260506171108 78 97 0.0 0.0 0.00 0.01 0.01 81 1018.3
20260506170600 78 97 0.0 0.0 0.00 0.01 0.01 79 1018.4
20260506170101 78 89 0.0 0.0 0.00 0.01 0.01 78 1018.4
20260506164557 79 63 0.0 0.0 0.00 0.01 0.01 80 1018.6
20260506164100 79 63 0.0 0.0 0.00 0.01 0.01 78 1018.7
20260506163557 79 63 0.0 0.0 0.00 0.01 0.01 75 1018.7
20260506163103 79 25 0.0 0.0 0.00 0.01 0.01 76 1018.8
20260506162607 78 226 0.0 0.0 0.00 0.01 0.01 76 1019.0
20260506162057 78 234 0.0 0.0 0.00 0.01 0.01 77 1019.1
20260506161557 78 233 0.0 0.0 0.00 0.01 0.01 79 1019.1
20260506161101 78 211 0.0 0.0 0.00 0.01 0.01 80 1019.2
20260506160557 78 203 0.0 0.0 0.00 0.01 0.01 79 1019.4
20260506160058 78 214 0.0 0.0 0.00 0.01 0.01 79 1019.6
20260506155601 78 214 0.0 0.0 0.00 0.01 0.01 79 1019.6
20260506155100 78 178 0.0 0.0 0.00 0.01 0.01 79 1019.7
20260506154601 77 178 0.0 0.0 0.00 0.01 0.01 83 1019.7
20260506154059 77 157 0.0 0.0 0.00 0.01 0.01 82 1019.8
20260506153558 77 157 0.0 0.0 0.00 0.01 0.01 82 1019.9
20260506153059 76 155 0.0 0.0 0.00 0.01 0.01 83 1020.0
20260506152601 76 155 0.0 0.0 0.00 0.01 0.01 82 1020.2
20260506152100 76 155 0.0 0.0 0.00 0.01 0.01 81 1020.4
20260506151601 76 156 0.0 0.0 0.00 0.01 0.01 85 1020.4
20260506151105 76 156 0.0 0.0 0.00 0.01 0.01 83 1020.5
20260506150604 76 156 0.0 0.0 0.00 0.01 0.01 83 1020.5
20260506150100 76 156 0.0 0.0 0.00 0.01 0.01 84 1020.5
20260506145558 76 155 0.0 0.0 0.00 0.01 0.01 83 1020.6